Wind_Speed
14 14 14 13 13 13 14 14 14 15 16 16 16 16 16 16 16 17 17 16 16 17 17 17 17 17 18 19 19 19 19 19 19 19 19 19 19 19 19 19 18 18 19
15 15 15 14 14 14 15 15 15 16 16 17 17 17 17 17 18 18 18 18 18 18 18 18 18 18 19 19 19 19 20 20 20 20 20 20 20 19 20 20 20 20 20
16 16 16 16 16 16 17 16 16 17 17 18 18 18 19 19 19 20 20 20 19 20 20 19 19 20 20 20 20 20 21 21 21 21 21 22 21 21 21 21 21 21 21
17 17 17 17 17 18 18 18 18 18 19 19 20 20 21 21 21 22 22 22 22 22 22 21 21 22 22 22 22 22 22 22 22 22 23 24 24 24 23 23 23 23 23
18 18 19 19 19 19 19 19 19 20 21 21 22 22 23 23 23 24 24 23 24 24 24 24 24 24 24 24 24 24 24 24 24 24 25 24 25 25 25 25 24 23 24
20 19 20 20 21 21 21 21 21 22 23 23 23 24 24 24 24 25 25 25 25 25 26 26 26 26 26 26 27 26 26 26 26 26 26 26 26 26 27 26 25 25 25
20 21 21 22 22 22 23 23 23 24 24 24 24 25 25 25 25 26 26 26 26 26 27 27 28 28 28 28 28 28 28 28 28 28 28 28 28 28 28 28 27 27 27
22 23 23 23 24 24 24 25 25 25 26 26 26 27 27 27 27 27 27 28 28 28 28 29 30 30 30 29 29 28 29 29 29 29 28 28 28 28 28 28 28 28 28
24 25 25 25 25 26 26 27 27 27 27 28 28 29 29 29 29 29 29 29 29 29 29 30 30 29 30 30 29 29 29 30 31 30 30 30 30 29 29 29 29 29 28
26 27 27 26 27 27 27 27 27 28 29 29 30 30 30 30 30 30 31 31 31 30 30 29 30 30 30 30 29 29 29 30 31 31 30 30 30 30 30 30 30 29 28
28 28 28 27 27 27 28 28 29 29 30 30 31 31 31 31 31 31 31 32 31 30 30 30 29 30 30 29 29 29 29 30 30 30 30 30 30 30 30 30 29 29 28
28 28 28 28 28 28 29 29 30 30 31 31 31 32 32 32 32 32 32 32 32 31 30 30 30 30 30 29 29 29 29 30 30 30 30 30 30 30 30 30 29 29 28
29 28 28 29 29 29 30 30 30 31 31 32 32 32 32 32 33 33 32 32 32 31 30 30 31 31 30 30 30 30 30 30 30 30 30 30 29 29 29 29 29 29 29
30 30 30 30 30 30 30 31 31 31 32 32 32 32 32 32 32 32 31 31 31 31 31 31 30 30 30 30 30 30 29 29 29 29 29 30 29 29 29 29 29 29 28
30 30 30 30 30 31 31 31 32 31 31 31 31 32 32 31 31 31 30 30 30 30 30 29 30 30 30 30 30 30 29 29 29 29 29 30 29 29 29 29 29 29 29
31 30 30 31 31 31 31 32 32 32 32 32 31 31 30 30 30 30 29 29 29 29 29 29 30 30 30 29 29 29 28 28 28 29 29 30 30 29 29 29 28 28 29
31 30 30 30 30 30 30 31 31 32 31 31 31 31 30 29 29 29 29 28 28 29 29 29 29 29 29 29 29 29 28 29 29 29 29 29 30 29 29 28 28 27 28
30 30 30 29 29 30 31 31 31 31 31 31 31 30 30 29 29 29 29 29 29 29 29 29 28 29 29 29 29 29 29 29 29 30 30 29 29 29 29 28 28 27 26
30 29 30 30 30 31 31 31 32 31 31 31 30 30 30 30 30 30 30 30 29 29 29 29 29 29 29 29 29 29 29 29 29 29 29 29 28 28 28 27 27 27 26
31 30 30 30 31 31 32 32 32 31 31 31 31 30 30 30 30 31 31 30 30 29 30 30 29 29 29 29 29 29 29 28 28 28 28 28 28 27 26 26 27 27 27
30 30 30 31 31 31 32 32 32 31 30 30 30 30 30 31 31 31 31 30 30 30 30 30 30 29 29 29 28 28 27 27 26 27 27 27 26 26 26 27 27 28 28
29 29 30 30 31 31 31 32 31 30 30 30 30 30 30 31 31 31 30 30 30 30 30 29 28 28 27 27 27 26 26 26 26 26 27 27 27 26 27 27 27 28 28
29 28 29 30 30 30 31 30 29 29 29 29 29 30 30 30 30 30 30 30 29 28 28 27 27 27 27 26 26 26 26 26 26 26 27 27 26 25 26 26 27 27 27
28 28 29 29 29 30 30 29 29 29 28 28 29 30 30 31 30 30 29 29 28 27 27 27 26 26 26 26 26 26 25 25 25 25 25 23 24 24 25 26 26 27 27
28 28 29 29 29 29 28 28 28 28 28 28 28 28 28 29 28 28 28 27 26 26 26 26 25 26 26 26 25 25 25 25 25 25 24 23 23 23 23 24 25 25 25
28 28 28 28 28 28 28 27 27 27 27 27 27 27 28 28 28 27 26 26 25 24 24 24 25 25 26 26 26 25 25 25 25 24 24 23 22 23 23 23 23 24 25
Wind_Direction
308 308 307 305 304 303 301 299 299 299 299 299 299 299 298 298 297 298 297 296 291 290 290 289 287 285 286 287 286 285 286 285 284 281 282 283 285 284 282 283 287 289 290
304 305 306 304 303 302 301 300 298 297 297 298 298 297 297 297 294 294 295 294 293 291 290 289 289 289 288 289 288 288 288 284 282 282 281 282 284 284 285 283 285 287 288
300 301 301 302 301 301 301 300 298 297 296 297 298 297 296 297 295 294 293 292 292 290 289 288 287 287 287 288 288 288 286 284 283 283 280 279 280 282 284 283 283 284 284
298 298 297 297 298 299 299 298 297 295 294 294 295 295 294 294 293 292 292 291 290 289 289 286 285 285 285 284 284 286 285 283 284 283 281 280 279 280 282 282 283 284 284
296 296 296 295 296 297 297 297 296 295 294 294 293 293 293 292 292 292 291 291 290 289 289 286 284 284 283 282 282 283 282 281 282 283 283 281 280 280 281 282 283 283 283
295 295 294 294 294 296 297 297 296 294 294 294 293 293 293 292 291 292 292 292 290 288 287 286 283 283 282 282 281 280 280 280 279 281 282 282 282 280 279 279 280 281 282
294 294 294 294 294 295 295 295 295 295 294 294 293 292 292 292 292 292 290 290 290 289 287 284 282 282 281 281 281 279 279 280 280 280 281 280 280 280 278 278 278 279 280
292 292 292 293 293 294 294 294 294 293 294 294 293 293 292 292 292 293 292 290 290 290 288 286 284 282 280 280 280 278 277 278 279 280 280 279 278 278 278 277 276 277 279
291 292 291 292 292 292 292 293 293 293 293 293 294 293 293 292 292 291 291 292 291 290 289 287 286 284 282 280 280 279 278 278 279 279 280 279 278 277 279 278 276 277 278
289 290 290 291 291 291 292 292 293 292 292 293 293 293 292 293 293 292 291 291 290 288 287 286 285 283 282 280 280 280 280 279 279 280 279 278 277 277 278 278 276 275 276
289 289 289 289 291 292 292 293 293 293 292 293 293 293 293 293 293 292 292 291 290 287 286 286 285 284 282 280 280 281 281 280 279 279 280 280 278 277 277 277 275 273 273
289 290 290 290 291 291 292 294 294 295 295 294 293 293 294 293 292 292 290 290 289 287 286 285 284 283 281 280 281 281 282 281 280 280 281 280 278 277 276 275 274 271 270
289 291 291 290 290 291 293 294 295 296 296 295 295 294 293 293 292 291 289 289 288 287 286 285 283 283 281 279 279 280 281 280 281 281 280 279 279 278 276 274 272 270 269
289 291 292 291 291 292 294 294 296 297 297 296 295 294 294 293 292 290 289 288 288 287 285 284 283 282 280 279 280 281 281 281 280 280 280 279 278 277 275 273 270 269 269
289 290 290 291 292 292 294 295 296 297 297 296 295 294 293 292 291 291 290 291 291 289 287 284 284 282 279 278 280 280 280 281 281 281 280 280 278 277 275 272 271 268 268
288 290 290 291 292 293 294 295 296 296 295 294 294 294 294 293 292 291 292 292 291 290 289 286 284 282 280 278 280 281 281 282 282 282 280 279 277 276 274 270 271 271 269
289 289 289 290 291 292 294 295 295 295 296 296 295 294 295 296 295 293 292 293 292 291 290 287 285 283 281 282 282 282 282 281 281 281 281 280 279 276 274 272 271 271 269
290 288 288 290 292 293 294 294 295 295 295 295 295 295 294 295 294 293 292 292 292 291 290 288 285 283 282 282 282 282 282 281 281 281 280 279 278 276 274 273 269 269 268
289 289 290 290 292 293 294 294 295 294 294 294 294 294 294 294 293 292 292 292 291 290 289 288 286 285 284 283 283 283 283 282 281 280 279 278 276 276 274 273 270 268 269
288 289 289 290 292 293 294 295 295 295 295 295 294 293 294 294 293 293 292 291 290 289 288 287 286 286 285 284 283 283 282 281 281 280 279 277 276 275 274 273 271 268 268
288 289 290 291 293 294 295 296 296 296 296 296 295 294 294 294 293 293 292 290 290 289 288 286 286 286 285 283 282 283 283 281 280 279 277 276 275 274 273 272 271 269 269
288 290 291 292 294 295 295 296 296 295 295 295 295 295 294 294 294 294 292 292 291 289 288 287 286 284 283 284 282 282 282 281 280 279 277 275 274 273 272 271 271 271 270
289 290 292 294 295 295 296 296 296 295 294 294 294 294 294 295 295 292 291 292 292 291 289 287 285 285 284 283 283 282 281 280 278 278 277 275 274 273 272 271 270 269 268
290 290 291 293 295 296 298 297 296 296 296 296 296 296 295 295 295 293 292 291 290 289 288 287 285 284 283 282 282 280 279 279 278 277 277 276 278 277 274 273 271 269 267
290 291 292 293 294 297 298 299 299 297 299 300 299 299 300 299 297 296 295 293 290 289 289 287 285 284 283 282 281 280 280 280 278 276 276 278 280 279 276 274 272 269 267
291 292 293 295 296 298 297 297 298 299 300 301 302 301 301 302 301 299 298 296 293 291 289 288 287 285 282 281 280 279 279 280 279 278 277 277 279 280 278 274 271 269 269
Height
5877 5875 5873 5871 5870 5868 5867 5866 5864 5862 5860 5859 5857 5855 5854 5852 5850 5849 5847 5846 5844 5842 5841 5840 5839 5838 5837 5835 5834 5833 5832 5831 5830 5829 5828 5827 5826 5824 5823 5821 5820 5819 5817
5873 5871 5869 5867 5866 5864 5863 5861 5860 5858 5856 5854 5852 5851 5849 5847 5846 5844 5843 5841 5839 5838 5836 5835 5834 5833 5831 5830 5828 5827 5826 5825 5824 5823 5822 5821 5820 5819 5817 5816 5815 5814 5812
5869 5867 5865 5864 5862 5860 5858 5857 5855 5853 5851 5849 5848 5846 5844 5842 5841 5839 5837 5836 5834 5833 5831 5830 5828 5827 5826 5824 5823 5821 5820 5819 5818 5817 5816 5815 5814 5813 5812 5810 5809 5808 5806
5865 5863 5861 5859 5857 5855 5854 5852 5850 5848 5846 5844 5842 5841 5839 5837 5835 5833 5832 5830 5828 5827 5825 5824 5822 5821 5820 5818 5817 5815 5814 5812 5812 5811 5810 5809 5808 5806 5805 5804 5803 5801 5800
5859 5858 5856 5854 5852 5850 5848 5846 5844 5842 5840 5838 5837 5835 5833 5831 5829 5827 5825 5824 5822 5820 5818 5817 5815 5814 5812 5811 5810 5808 5807 5806 5805 5804 5803 5801 5800 5799 5798 5797 5795 5794 5793
5854 5852 5850 5848 5846 5844 5842 5840 5838 5836 5834 5832 5830 5828 5826 5824 5822 5820 5818 5817 5815 5813 5811 5809 5808 5806 5805 5803 5802 5801 5800 5798 5797 5796 5795 5794 5793 5792 5791 5789 5788 5787 5785
5848 5846 5844 5842 5840 5838 5836 5834 5832 5829 5827 5825 5823 5821 5819 5817 5815 5813 5811 5809 5807 5805 5803 5801 5800 5798 5796 5795 5794 5792 5791 5790 5789 5788 5787 5786 5785 5784 5782 5781 5780 5779 5777
5842 5840 5838 5836 5834 5832 5830 5827 5825 5823 5821 5818 5816 5814 5812 5810 5807 5805 5803 5801 5799 5797 5795 5793 5791 5790 5788 5786 5785 5783 5782 5781 5780 5779 5778 5777 5775 5774 5773 5772 5771 5770 5769
5835 5833 5831 5829 5827 5824 5822 5820 5818 5815 5813 5810 5808 5806 5803 5801 5799 5797 5795 5792 5790 5788 5786 5784 5782 5781 5779 5777 5776 5775 5774 5772 5770 5769 5768 5767 5766 5765 5764 5762 5761 5760 5760
5828 5826 5823 5821 5819 5816 5814 5812 5809 5807 5804 5802 5799 5797 5795 5792 5790 5788 5785 5783 5781 5779 5777 5774 5773 5771 5770 5768 5767 5766 5765 5763 5761 5760 5759 5758 5756 5755 5754 5752 5751 5751 5750
5820 5818 5815 5813 5811 5808 5806 5803 5801 5798 5796 5793 5791 5788 5785 5783 5781 5778 5776 5773 5771 5769 5767 5765 5763 5762 5760 5759 5758 5757 5755 5754 5752 5751 5749 5748 5747 5746 5744 5743 5742 5741 5741
5812 5809 5807 5805 5802 5800 5798 5795 5792 5789 5787 5784 5781 5779 5776 5773 5771 5768 5766 5764 5762 5760 5758 5756 5754 5752 5751 5749 5748 5747 5745 5744 5743 5741 5740 5739 5737 5736 5735 5734 5732 5732 5731
5804 5801 5799 5796 5794 5791 5789 5786 5784 5781 5778 5775 5772 5769 5767 5764 5761 5758 5756 5754 5752 5750 5748 5746 5744 5743 5741 5740 5739 5737 5736 5734 5733 5732 5730 5729 5728 5727 5725 5724 5723 5722 5722
5795 5793 5790 5788 5785 5783 5780 5778 5775 5772 5769 5766 5763 5760 5757 5754 5751 5749 5746 5744 5742 5740 5738 5736 5735 5733 5732 5731 5729 5728 5726 5725 5723 5722 5721 5719 5718 5717 5715 5714 5714 5713 5712
5787 5784 5782 5779 5777 5774 5772 5769 5766 5763 5760 5756 5753 5750 5748 5745 5742 5739 5737 5735 5733 5731 5728 5727 5725 5723 5722 5721 5719 5718 5716 5715 5714 5712 5711 5709 5708 5707 5706 5704 5704 5703 5703
5778 5776 5773 5771 5768 5766 5763 5760 5756 5754 5751 5747 5744 5741 5738 5735 5732 5730 5728 5726 5723 5721 5719 5718 5716 5714 5712 5711 5709 5708 5707 5706 5704 5702 5701 5699 5698 5696 5695 5695 5694 5694 5694
5769 5767 5765 5762 5759 5757 5754 5751 5748 5745 5741 5738 5735 5732 5729 5726 5724 5721 5719 5717 5715 5712 5710 5708 5706 5704 5703 5701 5700 5699 5698 5697 5695 5693 5692 5690 5688 5687 5686 5685 5684 5684 5684
5760 5758 5756 5753 5751 5748 5745 5742 5739 5736 5733 5730 5727 5723 5720 5718 5715 5713 5710 5708 5706 5703 5701 5699 5697 5696 5694 5692 5691 5690 5688 5687 5685 5684 5682 5680 5679 5677 5676 5676 5676 5675 5675
5751 5749 5747 5745 5742 5739 5736 5733 5730 5727 5724 5721 5718 5715 5712 5709 5706 5704 5701 5699 5697 5695 5692 5690 5688 5686 5685 5683 5682 5680 5679 5677 5676 5674 5673 5671 5670 5669 5668 5667 5667 5667 5667
5743 5740 5738 5736 5733 5730 5727 5723 5720 5717 5714 5711 5708 5706 5703 5700 5698 5695 5692 5690 5688 5686 5683 5681 5679 5677 5676 5674 5673 5671 5669 5668 5667 5665 5663 5662 5661 5660 5660 5659 5659 5659 5659
5734 5732 5729 5727 5724 5721 5718 5714 5711 5708 5705 5702 5699 5697 5694 5691 5688 5685 5683 5680 5678 5676 5674 5672 5670 5668 5666 5665 5663 5662 5660 5659 5657 5656 5654 5653 5652 5652 5651 5651 5650 5650 5650
5725 5723 5720 5718 5715 5712 5709 5705 5702 5699 5696 5693 5691 5688 5684 5682 5679 5676 5673 5671 5669 5666 5665 5663 5661 5659 5657 5656 5654 5652 5651 5650 5648 5647 5646 5645 5644 5643 5642 5642 5642 5642 5642
5717 5714 5712 5709 5706 5703 5700 5696 5693 5690 5687 5684 5682 5679 5676 5672 5669 5667 5664 5661 5659 5657 5655 5653 5651 5650 5648 5647 5645 5643 5642 5641 5640 5638 5637 5636 5635 5634 5634 5633 5633 5633 5632
5708 5706 5703 5701 5698 5695 5691 5688 5684 5681 5678 5675 5672 5669 5666 5663 5660 5657 5654 5652 5649 5647 5646 5644 5642 5641 5639 5638 5636 5635 5634 5632 5631 5630 5629 5627 5626 5625 5625 5625 5624 5624 5623
5699 5697 5695 5692 5689 5686 5682 5679 5676 5673 5670 5666 5663 5660 5657 5654 5651 5648 5645 5642 5640 5638 5636 5635 5633 5632 5630 5629 5628 5626 5625 5624 5623 5621 5621 5619 5618 5617 5616 5616 5616 5615 5615
5691 5688 5685 5683 5680 5677 5674 5671 5668 5665 5661 5658 5655 5652 5649 5646 5642 5639 5636 5634 5631 5629 5628 5626 5624 5623 5621 5620 5619 5618 5616 5615 5614 5613 5612 5611 5610 5609 5608 5608 5607 5607 5606